Aérodrome :
LOGIN :

S'inscrire | Disclaimer

   EN    FR    IT 

 










Légende :    VFR   VFR Marginal   IFR   IFR Intensif   IFR Très Intensif
Visi : 
Plafond : 
>= 8 km
>= 3000ft
5 à 8 km
1000 à 3000 ft
1500m à 5 km
500 à 1000 ft
800 à 1500m
200 à 500 ft
< 800m
< 200 ft
Symboles :   Orages  Brouillard  Fortes neiges  Fortes précipitations  Vent > 20 kt
SIGMETs :   Divers  Orages  Givrage  Turbulence  Onde Orograph.  Cendres Volcan.







- Altitude de l'aérodrome : 183 ft
- Code IATA : HAJ


EDDV - Hanover/Langenhagen Int.

DERNIER METAR :
  • 222220Z 15004KT 110V170 CAVOK M04/M07 Q1003

METARs EXPIRÉS :
  • 222150Z 17007KT 130V190 CAVOK M04/M07 Q1003
  • 222120Z 15005KT 120V180 CAVOK M04/M07 Q1003
  • 222050Z 16008KT CAVOK M04/M07 Q1003 NOSIG
  • 222020Z 16010KT CAVOK M03/M07 Q1003 NOSIG
  • 221950Z 17008KT 130V200 CAVOK M03/M07 Q1003 NOSIG

TAF TAF EDDV
Valide du 22 à 18h jusqu'au 23 à 18h UTC


221700Z 2218/2318 12006KT CAVOK
Pas de NOTAMs connus pour ce terrain.



MET'MAP, la Météo Aéronautique d'un coup d'oeil ! - Copyright ORBIFLY Décembre 2007 - Disclaimer

ORBIFLY MET'MAP TEAM :

Programmation & Développement : Alexandra Zaïnal
Conception & Développement : Baudouin d'Aumeries
Co-Programmation & Développement : Marc-Olivier Méhu
Soutien technique & logistique : Manuel Goepfert

Contact : metmap@orbifly.com




SOURCES & CREDITS :

   NOAA